STARLINK-37673, 69370

Orbit data source: Space-Track

STARLINK-37673, 69370 is a payload satellite owned by SpaceX/Seattle (US) in LEO that was launched on Thu, 04 Jun 2026 UTC via an FALCON 9 launch vehicle from the Air Force Eastern Test Range (AFETR). Payload-class satellites include a variety of spacecraft equipped with specific instruments for various scientific and technological missions. These include communications satellites like Starlink; space stations such as the ISS; scientific satellites like the Hubble; Earth observation satellites from companies like Planet Labs, Umbra, and HawkEye 360; GPS; miniature CubeSats for education and research; and military/defense satellites.

Loading next visibility...
Identifier
69370, 2026-123T
Orbit
LEO
Country
Flag of USUS
Related business
Manufacturer
SpaceX/Seattle
Mission
Operational spacecraft
Bus & Motor
STARLINK V2MO, Unknown motor
Mass
575 kg wet, ~530 kg dry
Launch date (UTC)
2026-06-04 (2 months ago)
Launch vehicle
FALCON 9
Launch site
Air Force Eastern Test Range (AFETR)
Object type
Payload
Rocket body
Debris
Shape & HBR
Unknown shape, 17.7 m
Radar Cross Section
Large (>1 m²)

Expand to show TLE details & history
Last TLE update: 13 hours ago

TLE from 13 hours ago
0 STARLINK-37673
1 69370U 26123T   26202.12273686  .00162408  00000-0  10409-2 0  9993
2 69370  53.1584  72.4866 0000851 106.0661 254.0453 15.75293815  7398
Epoch: 2026-07-21T02:56Z
TLE epoch observation values (Epoch: 2026-07-21T02:56:44.464Z)
Latitude
-0.00004°
Longitude
89.40435°
Altitude
344.87 km
Speed
7.703 km/s
True Right ascension
04h 49m 56s
True Declination
0° 00' 00"
Sunlit
Object was in daylight at epoch
Visualization orbit readout
Latitude
Unknown
Longitude
Unknown
Altitude
Unknown
Speed
Unknown
Apparent Right ascension
Unknown
Apparent Declination
Unknown
Sunlit
N/A
Visualization observer readout
Local Sidereal Time
05:11:45
Azimuth
Unknown
Elevation
Unknown
Doppler factor
Unknown
Orbital elements
Apogee altitude
344.629 km
Perigee altitude
343.485 km
Semi-major axis
6,722.194 km
Eccentricity
0.00009
Inclination
53.1584°
RAAN
72.4866°
Arg. of periapsis
106.0661°
True anomaly
254.03592°
Mean anomaly
254.0453°
Eccentric anomaly
254.04061°
Mean motion
3.93801 °/min
Orbital period
91.42 mins
BSTAR
0.0010409
Loading maneuver chart data...
Computing Atmospheric mass density...
Loading historical data...
Loading historical data...
Loading historical data...
Loading historical data...
Loading historical data...
Loading historical data...
Loading historical data...

Documentation

Showing up to 5 results
|